Weather History for Antalya, Turkey

Change the Weather History Date:

Thursday, May 2, 2013

  Actual Average Record
Temperature  
Mean Temperature 78 °F -  
Max Temperature 90 °F 79 °F 90 °F (2013)
Min Temperature 66 °F 59 °F 51 °F (2008)
Cooling Degree Days 13    
Growing Degree Days 28 (Base 50)    
Moisture  
Dew Point 51 °F    
Average Humidity 39    
Maximum Humidity 65    
Minimum Humidity 11    
Precipitation  
Precipitation 0.00 in 0.03 in - ()
Sea Level Pressure  
Sea Level Pressure 29.81 in    
Wind  
Wind Speed 7 mph ()    
Max Wind Speed 10 mph    
Max Gust Speed -    
Visibility 6.6 miles    
Events      
Averages and records for this station are not official NWS values.
T = Trace of Precipitation, MM = Missing Value Source: Averaged Metar Reports

Daily Weather History Graph

Daily Weather History Graph

Search for Another Location

Airport:

Trip Planner

Search our weather history database for the weather conditions in past years. The results will help you decide how hot, cold, wet, or windy it might be!

Date:

Astronomy

May. 02, 2013 Rise Set
Actual Time 6:01 AM EEST 7:46 PM EEST
Civil Twilight 5:33 AM EEST 8:14 PM EEST
Nautical Twilight 5:00 AM EEST 8:48 PM EEST
Astronomical Twilight 4:24 AM EEST 9:24 PM EEST
Moon 1:23 AM EEST (5/2) 12:24 PM EEST (5/2)
Length of Visible Light 14h 40m
Length of Day
13h 44m
Waning Gibbous, 51% of the Moon is Illuminated
May 2
Waning Gibbous
May 2
Last Quarter
May 10
New
May 18
First Quarter
May 25
Full

Hourly Weather History & Observations

Time (EEST) Temp. Heat Index Dew Point Humidity Pressure Visibility Wind Dir Wind Speed Gust Speed Precip Events Conditions
12:20 AM 69.8 °F - 51.8 °F 53% 29.83 in - North 8.1 mph - N/A   Clear
12:50 AM 68.0 °F - 53.6 °F 60% 29.83 in - NW 3.5 mph - N/A   Clear
1:20 AM 69.8 °F - 51.8 °F 53% 29.83 in - North 5.8 mph - N/A   Clear
1:50 AM 68.0 °F - 53.6 °F 60% 29.83 in - North 6.9 mph - N/A   Clear
2:20 AM 69.8 °F - 50.0 °F 49% 29.80 in - NW 8.1 mph - N/A   Clear
2:50 AM 71.6 °F - 46.4 °F 41% 29.80 in - NNW 9.2 mph - N/A   Clear
3:00 AM 72 °F - 46 °F 28% 29.79 in 12 mi NNW 9.2 mph - -  
3:20 AM 69.8 °F - 48.2 °F 46% 29.80 in - North 6.9 mph - N/A   Clear
3:50 AM 71.6 °F - 46.4 °F 41% 29.80 in - NNW 9.2 mph - N/A   Clear
4:20 AM 69.8 °F - 48.2 °F 46% 29.80 in - North 9.2 mph - N/A   Clear
4:50 AM 69.8 °F - 48.2 °F 46% 29.80 in - North 9.2 mph - N/A   Clear
5:20 AM 75.2 °F - 44.6 °F 34% 29.80 in - NW 9.2 mph - N/A   Clear
5:50 AM 69.8 °F - 46.4 °F 43% 29.80 in - NNW 8.1 mph - N/A   Clear
6:20 AM 71.6 °F - 46.4 °F 41% 29.80 in - North 6.9 mph - N/A   Clear
6:50 AM 71.6 °F - 48.2 °F 43% 29.80 in - North 5.8 mph - N/A   Clear
7:20 AM 75.2 °F - 46.4 °F 36% 29.80 in - North 9.2 mph - N/A   Clear
7:50 AM 75.2 °F - 50.0 °F 41% 29.80 in 6.2 mi North 9.2 mph - N/A   Partly Cloudy
8:20 AM 78.8 °F - 51.8 °F 39% 29.80 in 6.2 mi North 9.2 mph - N/A   Partly Cloudy
8:50 AM 82.4 °F - 50.0 °F 32% 29.80 in 6.2 mi North 8.1 mph - N/A   Partly Cloudy
9:00 AM 82 °F - 47 °F 20% 29.81 in 6 mi North 8.1 mph - -   Scattered Clouds
9:20 AM 84.2 °F - 50.0 °F 30% 29.83 in 6.2 mi North 6.9 mph - N/A   Partly Cloudy
9:50 AM 86.0 °F - 50.0 °F 29% 29.83 in 6.2 mi NNE 5.8 mph - N/A   Partly Cloudy
10:20 AM 87.8 °F - 48.2 °F 25% 29.83 in 6.2 mi North 9.2 mph - N/A   Partly Cloudy
10:50 AM 87.8 °F - 46.4 °F 24% 29.83 in 6.2 mi NE 4.6 mph - N/A   Partly Cloudy
11:20 AM 89.6 °F 87.3 °F 53.6 °F 29% 29.83 in 6.2 mi Variable 4.6 mph - N/A   Partly Cloudy
11:50 AM 86.0 °F 84.2 °F 53.6 °F 33% 29.83 in 6.2 mi SW 9.2 mph - N/A   Partly Cloudy
12:20 PM 87.8 °F - 50.0 °F 27% 29.83 in 6.2 mi SSW 8.1 mph - N/A   Partly Cloudy
12:50 PM 86.0 °F - 50.0 °F 29% 29.83 in 6.2 mi South 10.4 mph - N/A   Partly Cloudy
1:20 PM 87.8 °F - 48.2 °F 25% 29.83 in 6.2 mi South 9.2 mph - N/A   Partly Cloudy
1:50 PM 87.8 °F - 48.2 °F 25% 29.80 in 6.2 mi South 9.2 mph - N/A   Partly Cloudy
2:20 PM 89.6 °F - 44.6 °F 21% 29.80 in 6.2 mi South 8.1 mph - N/A   Partly Cloudy
2:50 PM 89.6 °F - 42.8 °F 20% 29.80 in 6.2 mi South 10.4 mph - N/A   Partly Cloudy
3:00 PM 89 °F - 41 °F 11% 29.79 in 12 mi South 10.4 mph - -   Scattered Clouds
3:20 PM 89.6 °F - 42.8 °F 20% 29.80 in 6.2 mi SSW 9.2 mph - N/A   Partly Cloudy
3:50 PM 89.6 °F - 44.6 °F 21% 29.80 in 6.2 mi SSE 5.8 mph - N/A   Partly Cloudy
4:20 PM 87.8 °F - 44.6 °F 22% 29.77 in 6.2 mi SSE 5.8 mph - N/A   Partly Cloudy
4:50 PM 86.0 °F - 46.4 °F 25% 29.80 in 6.2 mi SE 5.8 mph - N/A   Partly Cloudy
5:20 PM 84.2 °F - 50.0 °F 30% 29.80 in 6.2 mi SE 5.8 mph - N/A   Partly Cloudy
5:50 PM 82.4 °F 81.7 °F 55.4 °F 39% 29.77 in 6.2 mi SE 4.6 mph - N/A   Partly Cloudy
6:20 PM 80.6 °F 80.8 °F 57.2 °F 45% 29.80 in 6.2 mi ESE 3.5 mph - N/A   Partly Cloudy
6:50 PM 77.0 °F - 59.0 °F 54% 29.77 in 6.2 mi South 4.6 mph - N/A   Partly Cloudy
7:20 PM 77.0 °F - 57.2 °F 50% 29.80 in 6.2 mi Variable 2.3 mph - N/A   Scattered Clouds
7:50 PM 75.2 °F - 59.0 °F 57% 29.80 in 6.2 mi South 2.3 mph - N/A   Scattered Clouds
8:20 PM 77.0 °F - 53.6 °F 44% 29.80 in 6.2 mi WSW 5.8 mph - N/A   Partly Cloudy
8:50 PM 73.4 °F - 59.0 °F 61% 29.80 in 6.2 mi WSW 4.6 mph - N/A   Partly Cloudy
9:00 PM 73 °F - 60 °F 54% 29.79 in 6 mi WSW 4.6 mph - -   Scattered Clouds
9:20 PM 73.4 °F - 60.8 °F 65% 29.80 in - West 3.5 mph - N/A   Clear
9:50 PM 73.4 °F - 57.2 °F 57% 29.80 in - Variable 2.3 mph - N/A   Clear
10:20 PM 71.6 °F - 57.2 °F 60% 29.80 in - North 4.6 mph - N/A   Clear
10:50 PM 71.6 °F - 55.4 °F 57% 29.80 in - North 4.6 mph - N/A   Clear
11:20 PM 71.6 °F - 55.4 °F 57% 29.80 in - NW 4.6 mph - N/A   Clear
11:50 PM 73.4 °F - 53.6 °F 50% 29.80 in - Variable 4.6 mph - N/A   Clear